Ana Sayfa
METAR-TAF:

METAR-TAF

Havaalanları :

Cape May County Airport

Wildwood, New Jersey, Amerika Birleşik Devletleri

Enlem: 39-01N, Boylam: 074-55W, yükseklik: 7 m

Güncel hava durumu gözlemi

Rapor saat 02:56 UTC de 11 dakika önce yapıldı.
Rüzgar güneybatıdan 3 kt
Sıcaklık 16°C
Nem 94%
Basınç 1016 hPa
Görüş mesafesi: 16.1 km
Açık gökyüzü

METAR: KWWD 070256Z AUTO 22003KT 10SM CLR 16/15 A3001 RMK AO2 SLP165 T01560150 51004 $

Saat: 23:07 (03:07 UTC)


TAF: eksik

4.000'den fazla havaalanı için hava durumu gözlemleri ve tahminleri (METAR ve TAF raporları).

Kullanılabilir istasyonlar harita üzerinde sarı ve kırmızı noktalarla gösterilir.

İstasyonun adını görmek için fareyi noktanın üzerinde gezdirin.

Sonrasında hava gözlem ve tahminlerini görmek için tıklayın.

Haritayı değiştirmek için: yaklaştırmak için siyah artı işaretli yeşil düğmeye ve uzaklaştırmak için de eksi işaretli düğmeye hızla tıklayın; bitişik haritalar için yeşil okları kullanın.


METAR-TAF: